Weather in Minskoye

Russia / Kostroma Oblast     57°41′26″N   41°01′23″E
temp.,
°C
wind,
m/s
gust,
m/s
humid.,
%
clouds,
%
prec.,
mm/h
press.,
hPa
HPBL,
m
8 december, wed
wed800:00−2sse51197100 0.9 1015428
03:00−3sse3797100 1.3 1015243
06:00−3sw2498100 0.3 1015114
09:00−7wnw369773 0.4 1017121
12:00−9wnw369521 0.0 1020161
15:00−12wnw249732 0.0 102150
18:00−17nw2310077 0.0 102334
21:00−19nnw2210085 0.0 102422
9 december, thu
thu900:00−19nnw2310063 0.0 102533
03:00−14n2495100 0.0 1025109
06:00−13nnw3595100 0.0 1025151
09:00−17nnw229949 0.0 102621
12:00−13nnw35945 0.0 1027146
15:00−15nnw229746 0.0 102828
18:00−17nnw3410070 0.0 102946
21:00−19nnw2210059 0.0 103128
10 december, fri
fri1000:00−20n2310052 0.0 103234
03:00−20n2210020 0.0 103319
06:00−20n2210018 0.0 103426
09:00−20nne221006 0.0 103530
12:00−13ne23925 0.0 1036100
15:00−15ene11965 0.0 10379
18:00−17ene22985 0.0 103734
21:00−17e24985 0.0 103838
11 december, sat
sat1100:00−18e249818 0.0 103950
03:00−18ese249832 0.0 104054
06:00−17ese379764 0.0 104099
09:00−16ese389759 0.0 1040129
12:00−12se3109299 0.0 1040239
15:00−12ese3890100 0.0 1040161
18:00−12se41288100 0.0 1040219
21:00−11se51383100 0.0 1040263
12 december, sun
sun1200:00−11se51483100 0.0 1040280
03:00−12se5138597 0.0 1040254
06:00−11sse51385100 0.0 1039259
09:00−10sse5138674 0.0 1039269
12:00−8sse41286100 0.0 1039304
15:00−6sse41086100 0.0 1038315
18:00−6sse5108894 0.0 1038241
21:00−8sse499099 0.0 1037152